Vertical_Velocity
2 -2 -2 -4 -2 -0 -1 -1 -3 -1 -2 1 0 -0 -2 -4 -1 -0 -2 -1 2 -1 0 1 1 -1 -3 -2 6 4 1 0 -1 2 6 -1 -1 -1 -3 -1 -1 -0 0
-1 -3 -3 -2 -3 -1 -0 -3 -1 -1 -3 -3 -0 -1 0 -2 -5 1 1 -0 -0 1 3 3 0 -2 1 -0 -1 1 2 2 2 3 -1 -3 2 1 3 -1 -0 -1 -2
0 -4 -4 -2 -0 -3 1 -1 -2 -1 -1 -2 -1 -3 -0 -2 -1 -4 -1 -2 -0 1 5 0 2 1 -2 -2 -2 -3 -2 -0 1 3 4 -2 -3 0 -1 0 -2 -1 2
-3 -4 -3 -1 -1 -2 -2 -1 -1 -1 -0 -1 0 1 -3 1 3 -4 -2 -0 -3 -3 -1 -2 -1 -2 2 1 -1 1 1 1 1 -1 -4 -1 -0 3 -0 2 -1 1 0
-5 -4 -2 -1 -0 -2 -2 -2 -1 -2 -2 1 0 -0 -0 0 -1 -1 -1 -1 -4 -2 -1 -4 -5 -3 -3 -3 -2 -1 -2 -3 1 1 0 4 -1 4 1 2 4 0 -1
-4 -6 -3 -2 -1 -1 0 -2 -0 -1 -2 -0 -1 0 1 0 -2 -0 -0 -3 1 -2 -3 -0 -4 -7 -4 -1 -1 -1 0 0 -3 1 -3 12 -1 6 1 -2 -2 -0 1
-4 0 -3 -2 -1 -2 -1 -1 -1 -1 -2 0 -0 0 -1 0 -3 -1 0 -3 -3 2 3 2 -7 5 2 -0 0 -1 -1 0 -0 10 -1 -1 -2 -1 1 1 0 0 -2
-10 -3 0 -3 -1 -2 -2 -0 -2 -2 -1 -1 -1 -1 -0 4 3 -2 -2 1 -4 4 -0 2 4 0 -3 1 4 1 -1 6 8 17 8 9 -0 -3 4 -1 -1 1 -1
-1 -8 2 -2 -3 -1 -2 1 -3 0 -2 -1 -1 -2 -1 2 4 1 -2 6 -2 -0 0 2 7 9 8 -3 -19 13 2 13 11 -3 -2 -2 4 -1 -3 2 -0 1 0
1 -8 -1 0 -2 -0 -2 -1 -1 0 -1 -2 1 -1 -3 -2 2 4 1 3 1 -1 3 3 3 3 -5 -6 -20 10 12 15 5 13 -5 -5 4 -2 -2 -8 -2 1 0
-2 -1 -6 -1 -1 -1 -2 -2 0 1 -1 -1 -1 -2 -2 -3 -0 1 2 2 5 -1 3 0 -0 0 -3 -5 -26 -17 6 16 12 7 1 16 -3 -4 -4 -2 -2 -2 -0
-2 0 -5 -2 -2 -3 -2 -1 -3 0 -2 -2 -1 -1 -1 -0 -3 -1 2 2 3 2 1 -0 1 1 0 -3 4 -4 -19 12 15 -2 10 1 -3 -1 -4 -2 -2 -0 0
-5 1 -1 -2 0 -2 -3 -3 -4 -3 0 -2 0 1 -1 0 1 1 2 4 1 3 3 -2 -2 -1 -2 1 -3 -5 -5 10 14 2 -2 -3 -3 -2 -0 -5 -2 2 -1
-3 -3 -3 -2 -1 -3 -3 -3 -3 -5 -3 -2 -2 -1 -2 2 -1 -3 2 -1 2 1 5 -0 1 -3 -2 -0 -1 -3 -1 14 10 -3 -7 7 -4 -1 -2 3 -2 2 -3
6 1 -5 -2 -4 -3 -2 1 -0 -0 -2 0 -4 -2 -4 -0 1 0 3 1 0 1 2 -0 -4 -1 1 2 -9 -2 5 18 8 -3 4 -3 -1 -3 -3 1 -1 -1 -0
22 5 -3 -8 -4 -2 -4 5 -4 -3 -5 1 -1 -2 -2 -0 -3 2 6 2 -0 -1 0 -1 -4 -1 -1 -1 -4 1 -14 29 -1 5 -4 3 -5 -5 -1 -3 1 -4 -0
-4 27 -3 -4 -6 -2 -3 1 -2 -3 3 -1 -0 -2 0 1 0 -2 4 0 -2 0 1 3 7 1 -1 1 0 -2 -3 29 2 -7 5 -3 -3 -2 1 1 -1 -1 -0
4 -0 14 -3 -2 -5 -5 1 -1 -0 -5 0 1 -1 -1 -1 3 -1 -1 1 3 3 6 5 3 0 1 -2 -1 -10 -0 22 10 -4 4 -4 -3 -4 -0 -0 2 -1 -3
14 0 9 -2 -3 -4 -1 2 1 2 -3 -1 -2 -2 -5 -3 1 -1 -2 -1 2 2 0 -0 -0 1 2 -1 -4 -11 2 29 3 9 -8 -0 -3 -0 -4 2 3 0 -1
0 -0 27 -0 -4 -2 -1 5 5 3 3 -2 -6 -3 -6 -4 -2 2 0 3 2 1 -1 1 1 -1 2 -1 -7 -1 14 39 14 -9 -1 2 -1 -3 -0 -4 1 0 -0
2 3 37 -1 -1 -8 -5 -4 5 -2 -1 -1 -0 -1 -1 -8 -4 -0 -0 3 7 -0 -2 3 1 0 1 2 39 13 17 8 5 1 7 4 -2 -0 2 -0 -3 -3 -1
-10 11 16 11 0 -3 -2 0 3 7 -0 2 2 1 1 -2 -4 -0 -0 0 -1 4 -0 -0 -0 -2 -1 19 8 -5 7 11 12 12 -3 5 3 -3 -4 2 0 -1 -1
-1 6 1 0 5 -7 -6 1 6 5 7 0 -3 1 2 2 -3 -2 -3 -3 -2 3 -1 1 -1 -1 6 21 2 -12 -1 -3 0 2 -5 2 12 0 -0 -5 -1 0 -4
23 2 -3 -1 2 -3 -11 -2 -3 -2 -3 1 -3 -1 1 6 -1 -2 -3 -3 -1 1 -2 1 -1 1 3 -7 20 13 -0 -6 -14 -1 1 0 5 12 4 -3 -5 -2 -3
-4 8 28 5 4 2 -13 -3 -4 10 4 1 -2 -1 -1 3 1 -3 -0 -5 0 -0 -3 -1 -6 8 -7 11 17 -7 -1 1 -2 -7 -3 -8 0 -0 7 6 -3 2 -3
-8 -10 4 26 -2 3 -4 -5 -6 3 2 -1 0 -3 -2 3 -2 -0 -5 -1 -2 2 -2 -3 2 -5 -2 3 -5 -4 -9 -20 -22 -10 3 -2 -8 -5 -5 2 10 10 5
Height
1477 1479 1483 1485 1487 1489 1491 1494 1497 1500 1503 1506 1508 1510 1513 1515 1517 1518 1520 1522 1524 1526 1527 1529 1531 1533 1536 1537 1540 1541 1542 1543 1543 1545 1545 1546 1547 1549 1551 1552 1553 1555 1556
1475 1478 1483 1485 1487 1489 1491 1494 1497 1500 1502 1506 1508 1510 1512 1515 1518 1520 1521 1523 1525 1527 1528 1530 1532 1534 1536 1538 1540 1542 1543 1543 1544 1546 1547 1548 1550 1551 1553 1554 1556 1557 1559
1475 1478 1483 1485 1487 1489 1491 1494 1496 1499 1502 1504 1507 1509 1512 1515 1517 1519 1522 1524 1527 1528 1531 1532 1533 1534 1536 1538 1540 1542 1544 1545 1547 1548 1549 1550 1552 1553 1555 1556 1558 1560 1562
1476 1479 1482 1485 1487 1489 1491 1494 1496 1498 1502 1504 1506 1509 1512 1515 1517 1519 1522 1524 1527 1528 1531 1532 1533 1534 1536 1538 1540 1542 1544 1546 1547 1548 1550 1551 1553 1555 1557 1558 1560 1562 1563
1475 1479 1482 1484 1486 1489 1490 1493 1496 1498 1501 1503 1505 1508 1511 1514 1518 1520 1522 1525 1527 1529 1530 1532 1534 1535 1536 1538 1541 1543 1545 1547 1549 1550 1551 1552 1554 1556 1558 1560 1561 1563 1565
1477 1479 1482 1485 1486 1488 1490 1492 1495 1497 1500 1503 1505 1508 1510 1514 1517 1519 1521 1524 1527 1529 1531 1531 1533 1534 1537 1539 1540 1543 1545 1548 1549 1550 1552 1553 1554 1557 1559 1561 1562 1564 1565
1478 1479 1482 1485 1486 1488 1490 1492 1494 1497 1500 1503 1505 1507 1510 1513 1516 1519 1521 1524 1527 1529 1530 1531 1533 1535 1537 1540 1541 1543 1546 1548 1548 1551 1552 1552 1555 1557 1559 1561 1563 1564 1565
1476 1479 1482 1484 1486 1488 1490 1492 1494 1496 1499 1502 1504 1507 1510 1512 1514 1518 1521 1523 1526 1528 1530 1532 1534 1536 1538 1541 1543 1545 1546 1548 1550 1551 1552 1554 1555 1557 1559 1561 1564 1565 1566
1474 1477 1481 1483 1485 1487 1489 1491 1494 1496 1498 1501 1503 1506 1509 1512 1514 1516 1519 1522 1525 1528 1530 1532 1534 1536 1538 1539 1544 1548 1547 1548 1549 1551 1549 1554 1557 1556 1559 1561 1564 1565 1566
1473 1474 1479 1481 1484 1486 1488 1490 1492 1494 1497 1499 1502 1505 1508 1510 1513 1515 1518 1521 1523 1526 1529 1532 1533 1535 1536 1538 1542 1546 1549 1548 1549 1551 1552 1554 1555 1555 1558 1562 1564 1566 1566
1472 1472 1475 1479 1481 1484 1486 1488 1490 1492 1495 1497 1500 1502 1505 1508 1511 1514 1516 1519 1521 1524 1527 1529 1530 1532 1534 1536 1540 1544 1547 1550 1548 1548 1551 1553 1553 1554 1558 1561 1564 1565 1566
1468 1469 1472 1476 1478 1481 1483 1485 1488 1490 1492 1494 1497 1499 1503 1505 1508 1511 1514 1516 1519 1522 1524 1526 1528 1530 1533 1535 1536 1540 1544 1549 1549 1546 1548 1550 1552 1554 1557 1560 1563 1564 1566
1466 1468 1470 1474 1476 1479 1480 1482 1484 1486 1489 1491 1493 1497 1500 1502 1506 1508 1511 1513 1516 1519 1521 1523 1525 1527 1530 1532 1535 1537 1541 1546 1546 1546 1547 1550 1552 1555 1557 1559 1562 1564 1566
1462 1465 1468 1471 1475 1476 1479 1480 1482 1484 1486 1488 1491 1493 1496 1499 1501 1505 1507 1509 1513 1515 1517 1520 1521 1524 1528 1530 1532 1533 1538 1542 1542 1544 1546 1549 1551 1554 1556 1558 1560 1562 1565
1456 1459 1464 1467 1470 1472 1477 1477 1479 1482 1484 1486 1488 1490 1492 1496 1498 1501 1504 1506 1509 1511 1514 1516 1517 1521 1525 1526 1528 1529 1534 1538 1540 1543 1546 1548 1550 1552 1554 1556 1559 1561 1565
1452 1452 1456 1462 1465 1468 1473 1475 1475 1477 1479 1481 1483 1485 1488 1491 1495 1499 1501 1503 1505 1508 1510 1512 1515 1519 1521 1523 1524 1527 1531 1535 1537 1541 1543 1545 1548 1550 1553 1555 1558 1560 1564
1448 1450 1448 1453 1459 1463 1467 1471 1471 1474 1476 1477 1478 1482 1485 1488 1490 1494 1497 1500 1502 1504 1507 1510 1513 1516 1518 1520 1520 1524 1529 1533 1536 1538 1541 1543 1546 1549 1552 1554 1556 1559 1562
1442 1445 1441 1446 1451 1457 1461 1465 1467 1470 1471 1473 1475 1477 1481 1484 1487 1490 1493 1495 1498 1501 1504 1506 1509 1511 1513 1516 1518 1521 1525 1530 1533 1536 1538 1541 1543 1547 1550 1554 1556 1558 1561
1437 1439 1435 1440 1445 1450 1456 1460 1463 1467 1468 1469 1471 1473 1476 1479 1483 1486 1488 1492 1494 1496 1499 1501 1504 1507 1509 1512 1514 1519 1521 1527 1532 1533 1536 1539 1542 1545 1548 1552 1555 1557 1560
1431 1435 1431 1432 1438 1444 1451 1457 1459 1462 1464 1466 1466 1468 1471 1475 1479 1482 1484 1487 1490 1492 1494 1496 1498 1501 1503 1507 1511 1512 1517 1527 1530 1531 1536 1538 1541 1544 1547 1550 1553 1555 1558
1426 1430 1430 1427 1432 1437 1444 1449 1453 1454 1458 1461 1463 1464 1465 1469 1474 1477 1480 1483 1484 1487 1489 1491 1494 1496 1499 1503 1502 1511 1515 1522 1526 1531 1535 1537 1539 1543 1545 1548 1551 1553 1555
1420 1423 1426 1424 1427 1432 1439 1444 1449 1451 1451 1456 1459 1461 1462 1465 1470 1473 1475 1477 1480 1482 1485 1486 1488 1491 1493 1493 1496 1504 1514 1521 1524 1529 1534 1537 1538 1542 1544 1546 1548 1550 1553
1415 1418 1420 1425 1424 1430 1435 1441 1446 1448 1447 1450 1452 1454 1457 1460 1464 1469 1469 1472 1475 1477 1480 1482 1483 1487 1488 1490 1495 1500 1508 1513 1520 1527 1532 1535 1538 1538 1541 1543 1546 1547 1550
1410 1413 1415 1419 1423 1425 1430 1434 1438 1437 1436 1439 1445 1449 1452 1456 1459 1464 1465 1467 1470 1473 1476 1477 1479 1482 1486 1488 1494 1499 1502 1503 1514 1523 1528 1532 1535 1537 1539 1540 1543 1546 1548
1406 1408 1411 1412 1416 1418 1422 1428 1432 1434 1433 1436 1441 1443 1448 1450 1454 1458 1461 1463 1466 1469 1472 1474 1476 1480 1483 1486 1490 1494 1501 1505 1512 1516 1522 1527 1531 1533 1536 1536 1540 1542 1545
1405 1404 1406 1408 1408 1412 1413 1421 1426 1429 1430 1432 1435 1437 1442 1445 1448 1453 1456 1459 1462 1465 1468 1471 1473 1478 1482 1486 1488 1493 1497 1501 1508 1514 1521 1523 1526 1528 1532 1534 1538 1539 1542